| time (UTC) | temp C | wind direction | speed KPH | gust KPH | rain 1hr cm | rain 24hr cm | rain mn cm | humidity % | barometer mb |
| 20260503233535 | 13 | 271 | 3.2 | 4.8 | 0.00 | 0.00 | 0.00 | 48 | 967.3 |
| 20260503232532 | 13 | 257 | 3.2 | 4.8 | 0.00 | 0.00 | 0.00 | 47 | 967.4 |
| 20260503231529 | 13 | 235 | 4.8 | 4.8 | 0.00 | 0.00 | 0.00 | 48 | 967.3 |
| 20260503230526 | 13 | 262 | 4.8 | 4.8 | 0.00 | 0.00 | 0.00 | 46 | 967.3 |
| 20260503225523 | 13 | 291 | 4.8 | 8.0 | 0.00 | 0.00 | 0.00 | 46 | 967.3 |
| 20260503224519 | 14 | 234 | 3.2 | 4.8 | 0.00 | 0.00 | 0.00 | 46 | 967.4 |
| 20260503223516 | 14 | 289 | 4.8 | 9.7 | 0.00 | 0.00 | 0.00 | 45 | 967.4 |
| 20260503222513 | 14 | 242 | 3.2 | 6.4 | 0.00 | 0.00 | 0.00 | 46 | 967.6 |
| 20260503221510 | 14 | 210 | 6.4 | 14.5 | 0.00 | 0.00 | 0.00 | 46 | 967.6 |
| 20260503220507 | 14 | 201 | 3.2 | 6.4 | 0.00 | 0.00 | 0.00 | 46 | 967.6 |
| 20260503215504 | 14 | 212 | 6.4 | 9.7 | 0.00 | 0.00 | 0.00 | 46 | 967.6 |
| 20260503214501 | 14 | 186 | 3.2 | 8.0 | 0.00 | 0.00 | 0.00 | 44 | 967.6 |
| 20260503213458 | 14 | 252 | 1.6 | 6.4 | 0.00 | 0.00 | 0.00 | 45 | 967.6 |
| 20260503212455 | 14 | 251 | 3.2 | 6.4 | 0.00 | 0.00 | 0.00 | 45 | 967.5 |
| 20260503211452 | 14 | 290 | 4.8 | 11.3 | 0.00 | 0.00 | 0.00 | 44 | 967.5 |
| 20260503210448 | 15 | 32 | 4.8 | 11.3 | 0.00 | 0.00 | 0.00 | 45 | 967.3 |
| 20260503205445 | 15 | 246 | 4.8 | 8.0 | 0.00 | 0.00 | 0.00 | 45 | 967.5 |
| 20260503204442 | 15 | 236 | 8.0 | 16.1 | 0.00 | 0.00 | 0.00 | 44 | 967.6 |
| 20260503203439 | 15 | 206 | 4.8 | 9.7 | 0.00 | 0.00 | 0.00 | 45 | 967.6 |
| 20260503202436 | 16 | 238 | 6.4 | 14.5 | 0.00 | 0.00 | 0.00 | 44 | 967.7 |
| 20260503201433 | 15 | 269 | 3.2 | 6.4 | 0.00 | 0.00 | 0.00 | 44 | 967.8 |
| 20260503200430 | 15 | 270 | 3.2 | 6.4 | 0.00 | 0.00 | 0.00 | 44 | 968.0 |
| 20260503195427 | 15 | 189 | 4.8 | 11.3 | 0.00 | 0.00 | 0.00 | 43 | 968.1 |
| 20260503194424 | 15 | 241 | 8.0 | 12.9 | 0.00 | 0.00 | 0.00 | 43 | 968.3 |
| 20260503193420 | 15 | 268 | 4.8 | 9.7 | 0.00 | 0.00 | 0.00 | 44 | 968.3 |
| 20260503192417 | 15 | 189 | 6.4 | 12.9 | 0.00 | 0.00 | 0.00 | 43 | 968.4 |
| 20260503191414 | 15 | 19 | 4.8 | 16.1 | 0.00 | 0.00 | 0.00 | 43 | 968.6 |
| 20260503190411 | 16 | 205 | 6.4 | 14.5 | 0.00 | 0.00 | 0.00 | 42 | 968.7 |
| 20260503185408 | 15 | 266 | 4.8 | 6.4 | 0.00 | 0.00 | 0.00 | 43 | 969.0 |
| 20260503184405 | 15 | 284 | 4.8 | 9.7 | 0.00 | 0.00 | 0.00 | 45 | 968.9 |
| 20260503183401 | 15 | 224 | 6.4 | 9.7 | 0.00 | 0.00 | 0.00 | 42 | 969.0 |
| 20260503182358 | 15 | 150 | 3.2 | 8.0 | 0.00 | 0.00 | 0.00 | 44 | 968.9 |
| 20260503181355 | 15 | 254 | 4.8 | 9.7 | 0.00 | 0.00 | 0.00 | 44 | 969.2 |
| 20260503180352 | 15 | 267 | 4.8 | 6.4 | 0.00 | 0.00 | 0.00 | 44 | 969.3 |
| 20260503175349 | 14 | 197 | 4.8 | 9.7 | 0.00 | 0.00 | 0.00 | 45 | 969.4 |
| 20260503174345 | 15 | 295 | 8.0 | 11.3 | 0.00 | 0.00 | 0.00 | 44 | 969.5 |
| 20260503173342 | 15 | 243 | 4.8 | 11.3 | 0.00 | 0.00 | 0.00 | 45 | 969.6 |
| 20260503172339 | 15 | 258 | 4.8 | 8.0 | 0.00 | 0.00 | 0.00 | 44 | 969.7 |
| 20260503171336 | 15 | 276 | 8.0 | 14.5 | 0.00 | 0.00 | 0.00 | 44 | 969.8 |
| 20260503170333 | 14 | 243 | 6.4 | 12.9 | 0.00 | 0.00 | 0.00 | 43 | 969.9 |
| 20260503150255 | 11 | 288 | 4.8 | 9.7 | 0.00 | 0.00 | 0.00 | 48 | 970.8 |
| 20260503140237 | 9 | 167 | 4.8 | 9.7 | 0.00 | 0.00 | 0.00 | 51 | 971.1 |
| 20260503131221 | 7 | 252 | 1.6 | 4.8 | 0.00 | 0.00 | 0.00 | 57 | 971.5 |
| 20260503130218 | 6 | 231 | 3.2 | 11.3 | 0.00 | 0.00 | 0.00 | 59 | 971.5 |
| 20260503120159 | 2 | 215 | 1.6 | 3.2 | 0.00 | 0.00 | 0.00 | 80 | 971.3 |
| 20260503110140 | 0 | 147 | 1.6 | 3.2 | 0.00 | 0.00 | 0.00 | 94 | 970.7 |
| 20260503100122 | -1 | 162 | 1.6 | 1.6 | 0.00 | 0.00 | 0.00 | 94 | 970.3 |
| 20260503081047 | 0 | 196 | 1.6 | 3.2 | 0.00 | 0.00 | 0.00 | 93 | 970.6 |
| 20260503072032 | 0 | 173 | 1.6 | 1.6 | 0.00 | 0.00 | 0.00 | 92 | 970.7 |
| 20260503071029 | 0 | 181 | 1.6 | 1.6 | 0.00 | 0.00 | 0.00 | 91 | 970.6 |
| 20260503055004 | 0 | 174 | 0.0 | 1.6 | 0.00 | 0.00 | 0.00 | 91 | 971.1 |
| 20260503054001 | 0 | 135 | 1.6 | 1.6 | 0.00 | 0.00 | 0.00 | 90 | 971.1 |
| 20260503052958 | 0 | 173 | 1.6 | 1.6 | 0.00 | 0.00 | 0.00 | 90 | 971.1 |
| 20260503051955 | 0 | 0 | 0.0 | 0.0 | 0.00 | 0.00 | 0.00 | 89 | 971.2 |
| 20260503050951 | 0 | 241 | 1.6 | 1.6 | 0.00 | 0.00 | 0.00 | 89 | 971.2 |
| 20260503045948 | 1 | 208 | 1.6 | 1.6 | 0.00 | 0.00 | 0.00 | 88 | 971.3 |
| 20260503044945 | 1 | 211 | 0.0 | 0.0 | 0.00 | 0.00 | 0.00 | 87 | 971.4 |
| 20260503043942 | 1 | 227 | 1.6 | 1.6 | 0.00 | 0.00 | 0.00 | 86 | 971.4 |
| 20260503042939 | 1 | 246 | 0.0 | 1.6 | 0.00 | 0.00 | 0.00 | 84 | 971.4 |
| 20260503041936 | 2 | 0 | 0.0 | 0.0 | 0.00 | 0.00 | 0.00 | 83 | 971.4 |
| 20260503040933 | 2 | 157 | 0.0 | 0.0 | 0.00 | 0.00 | 0.00 | 83 | 971.4 |
| 20260503035930 | 2 | 0 | 0.0 | 0.0 | 0.00 | 0.00 | 0.00 | 82 | 971.5 |
| 20260503034927 | 3 | 210 | 0.0 | 1.6 | 0.00 | 0.00 | 0.00 | 82 | 971.5 |
| 20260503033923 | 3 | 226 | 1.6 | 1.6 | 0.00 | 0.00 | 0.00 | 81 | 971.5 |
| 20260503032920 | 3 | 192 | 0.0 | 1.6 | 0.00 | 0.00 | 0.00 | 80 | 971.5 |
| 20260503031917 | 3 | 217 | 1.6 | 1.6 | 0.00 | 0.00 | 0.00 | 79 | 971.6 |
| 20260503030914 | 3 | 217 | 0.0 | 0.0 | 0.00 | 0.00 | 0.00 | 79 | 971.6 |
| 20260503025911 | 3 | 194 | 0.0 | 1.6 | 0.00 | 0.00 | 0.00 | 78 | 971.7 |
| 20260503024908 | 3 | 0 | 0.0 | 0.0 | 0.00 | 0.00 | 0.00 | 77 | 971.7 |
| 20260503023904 | 3 | 0 | 0.0 | 0.0 | 0.00 | 0.00 | 0.00 | 79 | 971.9 |
| 20260503022901 | 3 | 168 | 0.0 | 0.0 | 0.00 | 0.00 | 0.00 | 79 | 972.0 |
| 20260503021858 | 3 | 0 | 0.0 | 0.0 | 0.00 | 0.00 | 0.00 | 80 | 971.9 |
| 20260503020855 | 3 | 0 | 0.0 | 0.0 | 0.00 | 0.00 | 0.00 | 78 | 971.9 |
| 20260503015852 | 3 | 236 | 0.0 | 0.0 | 0.00 | 0.00 | 0.00 | 77 | 971.9 |
| 20260503014849 | 3 | 219 | 0.0 | 0.0 | 0.00 | 0.00 | 0.00 | 77 | 971.9 |
| 20260503013846 | 3 | 229 | 0.0 | 1.6 | 0.00 | 0.00 | 0.00 | 75 | 971.9 |
| 20260503012843 | 3 | 0 | 0.0 | 0.0 | 0.00 | 0.00 | 0.00 | 74 | 971.9 |
| 20260503011840 | 3 | 0 | 0.0 | 0.0 | 0.00 | 0.00 | 0.00 | 73 | 971.9 |
| 20260503010837 | 3 | 227 | 0.0 | 0.0 | 0.00 | 0.00 | 0.00 | 72 | 971.9 |
| 20260503005833 | 3 | 243 | 0.0 | 1.6 | 0.00 | 0.00 | 0.00 | 72 | 971.8 |
| 20260503004830 | 3 | 255 | 0.0 | 1.6 | 0.00 | 0.00 | 0.00 | 72 | 971.8 |
| 20260503003827 | 4 | 67 | 0.0 | 0.0 | 0.00 | 0.00 | 0.00 | 70 | 971.8 |
| 20260503002824 | 4 | 276 | 0.0 | 1.6 | 0.00 | 0.00 | 0.00 | 68 | 971.8 |
| 20260503001821 | 4 | 172 | 0.0 | 1.6 | 0.00 | 0.00 | 0.00 | 68 | 971.8 |
| 20260503000818 | 4 | 261 | 1.6 | 1.6 | 0.00 | 0.00 | 0.00 | 66 | 971.8 |
| 20260502235815 | 4 | 237 | 1.6 | 1.6 | 0.00 | 0.00 | 0.00 | 65 | 971.7 |
| 20260502234811 | 5 | 268 | 3.2 | 3.2 | 0.00 | 0.00 | 0.00 | 64 | 971.7 |